Regional Weather Roundup
Issued by NWS Albany, NY

Home | Current Version | Previous Version | Text Only | Print | Product List | Glossary On
Versions: 1 2 3 4 5 6 7 8 9 10 11 12 13 14 15 16 17 18 19 20 21 22 23 24 25 26 27 28 29 30 31 32 33 34 35 36 37 38 39 40 41 42 43 44 45 46 47 48 49 50
000
ASUS41 KALY 152110
RWRALY

NEW YORK STATE HOURLY WEATHER ROUNDUP
NATIONAL WEATHER SERVICE ALBANY NY
500 PM EDT MON SEP 15 2014

NOTE: "FAIR" INDICATES FEW OR NO CLOUDS BELOW 12,000 FEET WITH NO
SIGNIFICANT WEATHER AND/OR NO OBSTRUCTIONS TO VISIBILITY.

NYZ032-033-038>043-046>054-057>066-NYZ062>081-152200-
EAST


CITY           SKY/WX    TMP DP  RH WIND       PRES   REMARKS
ALBANY         PTSUNNY   66  39  37 NE3       30.12F
GLENS FALLS    FAIR      63  43  48 S8        30.12F
POUGHKEEPSIE   FAIR      68  44  42 S5        30.12S
NEWBURGH       MOSUNNY   68  46  45 VRB5      30.13F
MONTGOMERY     FAIR      69  45  41 SW3       30.11S
WHITE PLAINS   FAIR      69  42  37 NW5       30.12F
ISLIP          FAIR      67  45  45 VRB6      30.12S
NEW YORK CITY  PTSUNNY   70  43  37 S6        30.11F
CENTRAL PARK   FAIR      69  42  37 CALM      30.15S
$$

NYZ005>009-017-018-044>046-055-056-152200-
CENTRAL


CITY           SKY/WX    TMP DP  RH WIND       PRES   REMARKS
FULTON         FAIR      65  49  56 CALM      30.08F
SYRACUSE       PTSUNNY   68  47  46 W5        30.08F
ROME           FAIR      66  44  45 CALM      30.10F
ELMIRA         FAIR      67  47  48 W7        30.08F
BINGHAMTON     FAIR      64  45  49 SW9       30.11F
MONTICELLO     FAIR      64  45  48 S7        30.14F
$$

NYZ026>034-041>043-152200-
NORTH


CITY           SKY/WX    TMP DP  RH WIND       PRES   REMARKS
WATERTOWN      PTSUNNY   62  46  55 SW5       30.09F
FORT DRUM      NOT AVBL
MASSENA        FAIR      62  46  55 SW12G18   30.08S
SARANAC LAKE   FAIR      59  40  49 SW9       30.08S
PLATTSBURGH    PTSUNNY   61  44  53 S12       30.08S
$$

NYZ001>004-010>016-019>021-152200-
WEST


CITY           SKY/WX    TMP DP  RH WIND       PRES   REMARKS
NIAGARA FALLS  LGT RAIN  61  49  64 W5        30.09S
BUFFALO        CLOUDY    63  47  55 SW5       30.09F
DUNKIRK        CLOUDY    62  50  64 W3        30.09F
JAMESTOWN      CLOUDY    57  48  72 SW6       30.10R
WELLSVILLE     PTSUNNY   61  48  62 CALM      30.13S
ROCHESTER      CLOUDY    63  48  58 N6        30.10S
PENN YAN       PTSUNNY   67  48  50 S7        30.09F
$$

             KEY
       WCI = WIND CHILL INDEX
       VSB = VISIBILITY
       HX  = HEAT INDEX
$$


USA.gov is the U.S. government's official web portal to all federal, state and local government web resources and services.